STARLINK-4743, 53787

Orbit data source: Space-Track

STARLINK-4743, 53787 is a payload satellite owned by SpaceX/Seattle (US) in LEO that was launched on Sun, 11 Sep 2022 UTC via an FALCON 9 launch vehicle from the Air Force Eastern Test Range (AFETR). Payload-class satellites include a variety of spacecraft equipped with specific instruments for various scientific and technological missions. These include communications satellites like Starlink; space stations such as the ISS; scientific satellites like the Hubble; Earth observation satellites from companies like Planet Labs, Umbra, and HawkEye 360; GPS; miniature CubeSats for education and research; and military/defense satellites.

Loading next visibility...
Identifier
53787, 2022-111Q
Orbit
LEO
Country
Flag of USUS
Related business
Manufacturer
SpaceX/Seattle
Mission
Operational Commercial Communications
Bus & Motor
STARLINK, Unknown motor
Mass
305 kg wet, ~290 kg dry
Launch date (UTC)
2022-09-11 (4 years ago)
Launch vehicle
FALCON 9
Launch site
Air Force Eastern Test Range (AFETR)
Object type
Payload
Rocket body
Debris
Shape & HBR
Box + 1 Pan, 10.1 m
Radar Cross Section
13.562 m², Large (>1 m²)

Expand to show TLE details & history
Last TLE update: 13 hours ago

TLE from 13 hours ago
0 STARLINK-4743
1 53787U 22111Q   26127.94296315  .00004423  00000-0  29589-3 0  9993
2 53787  53.2188   7.9612 0001435  96.7220 263.3935 15.08834171202646
Epoch: 2026-05-07T22:37Z
TLE epoch observation values (Epoch: 2026-05-07T22:37:52.016Z)
Latitude
-0.00005°
Longitude
162.71258°
Altitude
540.773 km
Speed
7.593 km/s
True Right ascension
00h 31m 50s
True Declination
0° 00' 00"
Sunlit
Object was in daylight at epoch
Visualization orbit readout
Latitude
Unknown
Longitude
Unknown
Altitude
Unknown
Speed
Unknown
Apparent Right ascension
Unknown
Apparent Declination
Unknown
Sunlit
N/A
Visualization observer readout
Local Sidereal Time
19:33:01
Azimuth
Unknown
Elevation
Unknown
Doppler factor
Unknown
Orbital elements
Apogee altitude
540.999 km
Perigee altitude
539.013 km
Semi-major axis
6,918.143 km
Eccentricity
0.00014
Inclination
53.2188°
RAAN
7.9612°
Arg. of periapsis
96.722°
True anomaly
263.37717°
Mean anomaly
263.3935°
Eccentric anomaly
263.38533°
Mean motion
3.77189 °/min
Orbital period
95.44 mins
BSTAR
0.00029589
Loading maneuver chart data...
Computing Atmospheric mass density...
Loading historical data...
Loading historical data...
Loading historical data...
Loading historical data...
Loading historical data...
Loading historical data...
Loading historical data...

Documentation

Showing up to 5 results
|